Theta_e
320 321 324 324 326 330 333 336 337 341 343 342 345 350 357 360 361 362 360 358 357 357 356 353 352 353 344 343 339 337 340 336 329 334 337 341 339 341 341 341 341 340 333
318 318 319 323 325 329 330 333 338 340 345 343 344 346 351 356 361 360 356 354 354 352 352 351 348 346 348 350 338 346 336 340 331 335 341 335 333 337 339 339 343 343 340
316 316 318 323 325 328 331 334 333 338 341 341 340 346 349 354 357 358 355 354 354 353 351 348 346 348 346 342 341 339 337 336 339 333 335 333 332 335 335 336 337 339 334
315 314 316 319 325 326 329 332 332 335 337 341 344 345 348 352 354 355 354 355 354 351 350 348 348 345 342 342 341 342 341 337 336 336 334 331 330 333 331 329 328 333 332
315 314 316 319 323 324 326 329 332 335 335 341 341 346 350 353 351 354 354 355 354 351 350 347 346 341 331 337 338 341 341 335 335 334 333 329 328 328 327 335 330 327 330
315 314 314 314 317 322 325 328 331 332 336 345 342 345 350 350 322 323 344 354 352 347 346 346 343 332 330 320 321 321 329 339 337 335 331 330 330 329 329 332 325 322 322
314 313 313 313 315 318 320 325 328 332 338 343 345 349 350 354 313 314 322 354 350 349 347 345 340 337 333 337 316 316 318 315 321 337 335 330 334 332 333 332 331 329 326
313 312 312 313 314 317 320 320 327 332 339 343 346 352 351 350 310 312 317 353 351 349 347 345 344 340 337 335 334 333 334 334 332 333 338 338 337 339 337 335 333 332 331
310 310 313 313 312 312 315 321 324 331 339 344 350 350 349 338 308 311 327 349 346 344 341 340 340 339 316 311 335 332 333 333 311 306 309 306 309 313 325 333 330 328 322
310 312 311 311 311 313 315 317 322 333 340 346 347 348 337 338 307 311 326 342 342 337 340 336 312 331 305 307 336 334 332 332 332 330 332 322 320 322 312 338 336 327 324
312 314 312 312 312 316 316 317 326 337 341 345 345 345 345 336 324 307 310 339 336 334 334 335 333 303 301 302 305 337 334 334 324 333 333 337 334 331 331 334 337 331 326
313 315 315 315 317 320 319 320 331 339 341 340 338 339 339 339 316 305 305 316 321 334 334 334 321 299 299 300 310 303 307 317 333 331 331 329 329 330 330 333 336 336 333
311 312 314 317 318 317 317 326 333 334 335 335 335 334 333 336 330 302 301 303 310 334 334 309 298 297 297 305 300 302 303 330 330 331 327 326 329 329 332 332 333 332 330
310 310 310 310 311 316 334 332 333 333 333 334 334 333 333 333 329 330 325 321 310 314 309 319 315 311 306 316 318 317 330 331 329 328 326 327 328 328 328 327 324 326 324
313 316 323 325 327 326 322 331 334 334 334 337 336 333 330 328 329 322 325 332 333 324 326 327 327 327 326 326 326 327 328 328 327 329 327 327 326 324 323 323 323 325 322
316 316 321 323 323 324 319 312 297 303 302 304 310 325 328 309 300 300 299 302 304 306 327 327 327 326 325 323 324 326 328 323 330 328 328 326 324 324 322 322 323 322 321
316 316 323 323 328 326 323 321 316 306 299 297 300 305 306 300 297 297 299 300 301 305 328 327 327 325 323 324 325 326 326 329 330 327 325 325 324 324 320 321 323 324 324
318 307 322 328 331 329 330 330 329 327 323 318 298 302 297 296 295 296 298 306 321 318 330 327 327 327 325 324 323 324 326 328 327 327 325 324 324 323 321 322 322 322 322
321 318 321 329 333 327 330 329 328 326 317 314 312 303 297 294 296 296 298 329 326 326 328 327 328 327 327 326 326 325 326 326 325 325 326 325 324 323 322 322 322 304 309
320 307 308 327 326 329 327 326 324 323 324 324 320 312 310 313 318 322 328 328 327 324 323 324 325 327 326 325 325 326 326 324 325 325 326 325 325 323 322 323 323 320 319
321 325 306 329 331 329 328 327 325 325 324 321 319 317 303 325 324 324 324 319 322 322 324 325 323 324 325 325 326 324 323 324 324 319 321 322 321 322 323 322 319 323 320
324 328 326 327 329 329 327 328 325 324 321 321 322 314 296 324 322 319 313 310 314 315 318 320 316 314 312 314 322 322 320 319 322 321 320 321 322 324 322 320 318 319 318
327 325 327 330 330 317 328 325 323 323 322 321 321 320 319 316 311 305 302 300 302 302 302 304 304 303 305 306 306 310 319 320 320 320 319 323 325 324 325 320 318 317 317
329 328 329 329 327 326 324 322 322 312 319 316 314 314 311 307 301 298 297 297 295 296 296 295 296 297 299 300 301 302 305 306 318 323 325 326 323 320 323 322 322 322 318
330 331 326 326 324 322 319 318 318 318 313 309 307 305 302 299 296 294 294 294 294 292 293 293 293 294 293 294 294 296 290 289 303 297 321 321 317 313 311 311 311 307 307
325 326 325 324 320 317 315 313 311 311 310 307 302 299 297 295 293 292 292 292 290 290 290 290 290 290 291 290 289 287 287 289 295 291 306 306 305 303 303 302 302 302 303
Wind_Speed
12 13 14 14 14 13 13 13 13 14 13 15 17 15 15 16 17 15 14 14 15 12 12 12 12 9 8 5 7 6 3 5 7 3 4 4 1 3 3 6 5 8 7
13 14 16 16 15 14 14 15 15 16 16 16 17 16 17 17 17 17 17 15 16 14 14 12 12 10 9 7 6 3 5 5 6 4 3 5 1 2 3 3 3 4 4
13 14 15 17 16 15 15 15 17 18 18 18 18 17 18 17 18 18 18 16 16 15 13 12 12 11 11 7 6 6 6 6 4 6 4 3 2 3 2 2 1 4 6
15 16 17 16 17 16 16 17 18 19 19 18 18 19 19 18 19 19 19 16 15 14 13 13 12 13 10 9 8 6 3 3 4 1 4 5 3 4 2 4 4 1 3
16 17 17 17 19 19 19 18 18 19 19 20 19 19 18 17 16 19 18 15 14 14 12 13 10 11 10 10 8 6 5 7 4 4 4 5 4 5 6 5 4 4 3
19 18 20 18 20 20 18 17 18 20 20 20 19 19 20 16 17 17 16 14 15 13 12 12 9 11 9 10 9 9 2 7 5 5 6 6 7 6 6 5 6 6 4
20 19 22 19 19 21 19 20 19 20 22 22 20 21 20 19 20 18 15 14 14 13 13 11 11 10 11 9 7 4 4 7 3 5 7 4 7 9 7 6 8 6 4
21 22 22 18 19 17 18 18 20 19 21 20 20 20 18 15 18 20 16 15 13 14 12 12 10 13 11 10 10 9 9 8 8 6 5 4 1 7 7 7 5 7 6
20 20 23 21 19 19 21 21 20 20 20 19 18 19 20 14 18 21 17 15 14 13 12 12 9 12 12 9 12 10 9 6 7 7 8 5 4 6 5 7 6 6 5
19 19 19 16 17 20 20 22 21 21 20 16 17 19 18 18 15 22 14 13 13 11 11 9 7 8 13 11 9 9 8 8 8 8 5 4 5 5 7 6 7 7 3
20 20 16 17 21 22 20 18 19 20 18 17 18 16 16 18 16 17 12 13 11 11 9 9 8 12 11 9 3 7 5 7 4 7 6 4 5 6 6 7 6 5 7
21 21 20 22 17 16 18 17 21 20 18 18 15 13 12 16 15 7 8 8 11 8 11 8 10 11 9 8 6 7 6 6 6 6 5 6 5 4 3 4 5 4 3
18 19 23 24 21 15 17 19 17 18 15 14 13 13 13 13 11 13 10 10 8 5 7 13 16 13 11 10 9 8 8 6 5 4 5 2 3 4 3 6 5 6 4
19 22 30 26 23 20 16 16 14 12 11 13 14 14 14 14 12 9 9 11 17 14 14 12 10 10 1 11 7 5 7 5 5 6 6 5 5 5 5 5 2 5 3
17 18 9 14 14 13 8 10 12 11 14 15 14 14 15 14 13 12 12 11 11 12 13 10 9 9 8 7 7 6 4 5 6 6 2 6 6 6 4 5 4 5 4
13 13 8 9 10 10 10 10 23 15 16 13 14 12 11 16 18 15 14 19 20 16 10 10 9 8 8 7 7 7 6 7 5 7 6 5 4 6 5 5 4 5 6
8 9 3 3 9 12 12 14 14 15 27 21 15 18 15 18 20 17 18 20 18 11 7 7 8 8 6 6 7 6 7 5 7 5 5 5 5 4 7 4 5 7 7
5 10 2 3 11 13 14 15 15 15 13 11 17 12 18 20 19 18 17 15 8 4 6 8 7 8 8 8 8 8 7 4 5 6 5 5 5 5 6 6 6 7 6
6 5 4 5 11 14 13 14 14 14 12 12 11 11 12 17 15 13 7 9 10 8 7 6 8 7 7 7 7 6 6 6 4 4 5 5 5 6 7 6 4 4 3
6 10 10 8 12 13 12 15 13 14 15 14 12 9 7 10 9 8 6 7 6 5 2 2 3 5 6 4 5 5 6 6 5 3 2 4 4 4 7 7 6 5 6
3 6 7 10 12 13 13 14 15 14 13 12 12 11 11 11 10 8 8 7 4 2 5 4 5 6 4 5 5 5 3 5 6 3 1 1 3 5 4 4 4 6 5
7 4 2 10 13 14 14 13 13 13 14 12 12 5 6 10 10 10 9 8 8 9 8 8 7 6 5 5 2 4 5 2 3 4 3 5 6 3 3 5 4 2 2
7 9 8 11 10 15 13 12 12 13 13 14 12 9 11 10 11 10 9 8 8 8 9 8 7 6 5 5 5 5 2 3 3 2 4 6 5 5 5 4 4 4 4
14 10 13 12 12 13 12 13 14 13 14 13 11 10 12 11 11 11 9 8 9 8 8 8 8 9 7 7 5 5 6 6 4 4 4 4 2 3 4 3 3 3 3
13 14 15 14 12 14 14 13 13 14 14 13 12 12 12 12 12 10 9 8 9 9 11 9 7 11 13 14 11 10 7 7 7 5 5 6 10 10 7 6 7 7 7
14 15 14 14 13 12 13 13 14 13 14 13 12 12 12 12 10 9 9 10 10 10 11 9 12 16 16 13 13 11 9 10 10 10 8 8 8 8 8 9 11 7 8
Wind_Direction
290 292 285 278 278 275 270 269 272 272 255 256 262 251 214 216 211 200 205 200 198 198 200 194 200 210 195 212 216 232 261 257 263 119 91 123 166 205 200 221 185 186 168
279 285 294 287 274 272 270 268 270 269 264 258 252 243 236 215 206 202 200 201 190 200 196 189 196 198 208 228 209 209 245 250 258 172 163 139 222 209 233 237 230 204 150
284 287 287 288 274 274 274 269 265 266 265 258 251 239 233 215 206 201 199 202 190 192 187 192 199 190 194 203 217 207 225 230 192 245 192 143 132 179 198 168 13 109 105
287 293 286 283 280 277 272 269 260 263 263 254 246 242 232 214 205 199 203 197 185 178 185 192 198 190 192 201 196 228 207 172 239 178 205 169 169 163 186 166 163 120 106
285 289 287 287 275 271 264 263 262 260 262 254 244 233 232 212 202 194 197 181 177 174 180 190 190 184 175 196 208 196 218 224 206 192 209 172 177 175 195 188 168 146 105
280 279 288 283 277 273 269 267 266 260 259 250 237 233 223 209 182 173 185 172 172 175 170 184 146 119 117 102 99 60 7 235 235 194 196 219 176 196 211 187 133 179 166
281 278 283 279 269 264 266 259 261 253 255 243 231 229 215 201 157 157 160 166 169 166 168 175 164 179 175 175 104 100 118 103 56 253 212 233 191 188 199 185 181 196 126
278 276 282 268 265 268 272 274 261 253 251 230 224 223 203 182 158 151 159 161 163 166 170 172 189 159 180 180 180 196 216 201 208 228 216 240 226 185 193 197 180 111 104
280 272 270 268 267 266 266 268 256 255 243 221 219 206 190 158 159 147 166 157 164 165 168 176 181 157 168 181 184 195 203 163 115 94 85 64 38 142 177 173 164 184 148
269 263 257 255 254 257 259 262 255 252 229 211 203 195 173 160 168 152 179 161 156 159 169 149 87 190 153 165 216 179 197 168 189 182 175 130 156 136 176 211 170 163 173
278 266 258 248 247 251 263 256 257 241 211 195 187 173 153 156 162 156 176 155 160 162 152 158 152 137 150 151 221 195 217 170 158 180 201 180 181 159 186 209 200 202 194
279 278 269 266 261 258 257 250 250 211 190 180 147 143 144 151 148 177 97 90 150 161 151 168 126 133 124 132 180 135 112 161 181 168 191 180 170 182 149 189 189 146 102
284 275 272 271 259 234 260 243 199 172 152 142 137 131 140 153 148 93 78 112 119 104 99 100 111 114 123 106 120 157 165 217 140 158 162 159 184 160 162 180 167 173 163
267 270 272 265 266 259 205 176 143 141 134 144 138 147 141 144 150 148 120 110 101 97 104 117 114 114 113 116 135 175 216 177 180 176 163 179 174 151 169 150 152 172 182
268 286 56 143 151 132 103 134 137 140 155 144 146 140 145 148 158 155 159 156 145 130 123 133 145 160 154 158 163 182 183 163 186 158 206 171 174 156 161 161 185 200 201
315 344 37 95 107 108 99 82 45 73 64 84 109 131 128 114 112 110 104 106 116 134 155 161 170 165 162 162 168 182 185 196 185 179 188 190 172 171 163 177 184 190 209
332 340 330 112 123 120 113 110 105 66 66 54 87 109 109 115 106 108 118 125 141 154 165 164 173 162 157 172 173 177 197 197 181 192 176 190 175 178 161 181 205 210 223
321 310 267 251 125 123 127 126 126 122 109 83 38 82 101 105 107 114 120 123 147 195 180 169 170 161 164 173 178 178 197 189 204 183 165 183 179 167 195 196 200 222 244
282 277 285 203 134 130 124 126 116 108 106 110 102 69 66 84 101 117 142 156 170 174 178 179 159 166 159 159 172 178 183 204 198 212 194 182 183 185 194 202 203 206 263
265 281 264 181 139 133 123 120 111 126 127 126 113 112 111 114 123 146 152 157 154 155 146 192 140 123 132 141 155 169 180 172 181 182 228 230 170 191 205 199 192 195 221
215 270 349 125 116 119 113 126 134 127 124 114 120 139 144 142 150 127 92 53 59 136 138 121 115 115 128 143 154 155 157 174 179 169 254 182 182 227 200 188 217 216 225
209 175 210 123 127 134 127 128 124 121 118 121 121 91 83 104 101 89 77 66 54 48 46 60 66 59 46 38 52 152 158 153 180 176 207 238 222 195 178 192 208 231 235
145 165 215 130 117 115 118 120 115 120 119 125 114 104 93 90 84 79 73 64 60 59 50 50 58 52 40 40 31 25 77 168 172 204 239 241 212 203 195 183 190 212 238
148 164 120 117 119 119 115 120 113 114 108 102 102 96 94 89 85 79 75 68 64 61 60 54 50 48 33 43 23 21 15 359 34 29 3 1 272 102 62 41 53 81 71
136 114 117 115 106 103 108 109 109 108 102 96 94 95 94 93 89 82 82 77 76 71 65 57 52 53 51 51 48 47 28 29 42 6 56 59 68 64 59 70 75 64 59
117 117 110 112 105 107 110 110 106 103 102 100 100 96 97 95 89 85 86 85 82 72 70 61 62 59 56 48 40 25 28 47 59 53 69 72 76 69 68 68 66 62 59